www.pogodaiklimat.ru

Погода и климат >> Архив погоды >> Антарктида >> Neumayer


ПОГОДА в Neumayer

  • Прогноз погоды в Neumayer
  • Монитор погоды в Neumayer
  • Климат города

АРХИВ ПОГОДЫ в Neumayer

Время (UTC), дата Ветер
(напр.,м/с)
 
Видим.   Явления Облачность Т
(С)
Тd
(С)
f
(%)
Тe
(С)
Тes
(С)
Комфортность P
(гПа)
Po
(гПа)
Тmin
(С)
Tmax
(С)
R
(мм)
R24
(мм)
S
(см)
18 9.08 З 5 20 км {снег, метель} 10/10 200 м
[St]
-23.8 -26.2 81 -34 -34 опасность
обморожения
986.5 981.1
21 9.08 ЮЗ 2 20 км 10/10 100 м
[St]
-24.5 -26.8 81 -31 -31 опасность
обморожения
984.8 979.4
00 10.08 ЮЗ 1 2000 м снежные зёрна 10/10 600 м
[Frnb]
-26.1 -28.3 82 -30 -30 983.5 978.1 -26.4 -21.0
03 10.08 Ю 3 н/о н/о -31.8 -34.5 77 -42 -42 опасность
обморожения
983.5 978.1
06 10.08 Ю 4 н/о н/о -34.5 -37.9 71 -47 -47 опасность
обморожения
985.1 979.8
09 10.08 Ю 3 50 км 1/0 2000 м
[Ac As Cs]
-36.6 -40.1 70 -48 -48 опасность
обморожения
987.2 981.8
12 10.08 Ю 3 50 км 10/0
[Cs]
-36.2 -40.0 68 -46 -46 опасность
обморожения
987.1 981.7 -37.4 -26.1
15 10.08 ЮЗ 4 50 км 10/0
[Cs]
-31.9 -36.8 62 -43 -43 опасность
обморожения
985.9 980.5
18 10.08 З 5 50 км 9/3 200 м
[Sc Cs]
-28.6 -32.0 72 -40 -40 опасность
обморожения
983.3 977.9
21 10.08 ЮЗ 2 10 км 4/1 600 м
[Sc As trans]
-32.5 -35.9 72 -39 -39 опасность
обморожения
981.5 976.1
00 11.08 Ю 5 50 км ясно -36.5 -40.0 70 -50 -50 опасность
обморожения
981.2 975.8 -37.2 -27.4
03 11.08 Ю 6 н/о н/о -36.2 -40.5 64 -51 -51 опасность
обморожения
981.7 976.4
06 11.08 ЮЗ 4 н/о н/о -39.5 -43.7 64 -53 -53 опасность
обморожения
980.8 975.4
09 11.08 ЮЗ 6 50 км 3/0
[Cs]
-37.6 -41.8 65 -53 -53 опасность
обморожения
978.8 973.5
12 11.08 Ю 3 50 км ясно -39.7 -43.2 69 -51 -51 опасность
обморожения
975.2 969.9 -40.0 -35.8
15 11.08 ЮЗ 5 50 км 3/0
[Cs]
-39.8 -44.2 63 -54 -54 опасность
обморожения
972.3 967.0
18 11.08 ЮЗ 8 50 км 1/0
[Cs]
-37.2 -41.3 65 -55 -55 опасность
обморожения
969.0 963.6
21 11.08 ЮЗ 12 1000 м сильный позёмок {метель} ясно -27.1 -30.4 73 -44 -44 опасность
обморожения
964.8 959.4
00 12.08 ЮЗ 11 4000 м сильный позёмок {метель} 1/0
[Cs]
-23.8 -26.9 76 -39 -39 опасность
обморожения
963.1 957.8 -40.1 -23.7
03 12.08 ЮЗ 12 н/о н/о -21.1 -24.1 77 -36 -36 опасность
обморожения
962.4 957.0
06 12.08 ЮЗ 4 н/о н/о -24.7 -27.5 77 -34 -34 опасность
обморожения
966.7 961.4
09 12.08 Ю 5 50 км 9/0
[Cs]
-27.0 -30.2 74 -38 -38 опасность
обморожения
973.5 968.2
12 12.08 В 3 50 км 10/0
[Cs]
-20.4 -23.6 75 -27 -27 977.3 971.9 -29.1 -19.2
15 12.08 В 15 50 м сильная метель 10/10 600 м
[St]
-14.3 -16.2 85 -28 -28 978.6 973.3
18 12.08 В 16 200 м слабый снег {метель} туман 10/10 300 м
[Frnb]
-15.2 -17.5 83 -30 -30 980.1 974.7
21 12.08 В 14 200 м метель {снег} 10/10 300 м
[St]
-15.1 -16.9 86 -29 -29 980.6 975.3
00 13.08 В 12 50 м слабый снег {метель} туман 10/10 100 м
[Frnb]
-16.5 -18.4 85 -30 -30 981.6 976.2 -19.5 -14.2
03 13.08 В 11 н/о н/о -16.9 -19.0 84 -30 -30 983.1 977.7
06 13.08 В 6 н/о н/о -18.6 -21.9 75 -29 -29 984.4 979.1
09 13.08 Ю 6 20 км 9/0
[Cs]
-21.6 -25.0 74 -33 -33 опасность
обморожения
986.9 981.5
12 13.08 Ю 6 20 км 4/0
[Cs]
-24.8 -28.6 71 -37 -37 опасность
обморожения
987.9 982.5 -25.1 -16.0
15 13.08 ЮЗ 9 20 км позёмок {метель} 1/0
[Cs]
-22.4 -26.0 72 -36 -36 опасность
обморожения
986.5 981.1
18 13.08 ЮЗ 5 20 км {метель} туман ясно -21.0 -24.0 77 -31 -31 опасность
обморожения
986.2 980.8
21 13.08 ЮЗ 12 4000 м сильный позёмок {метель} ясно -20.9 -24.1 75 -36 -36 опасность
обморожения
985.6 980.3
00 14.08 Ю 7 20 км {метель} ясно -24.2 -28.3 69 -37 -37 опасность
обморожения
986.1 980.8 -26.8 -18.8
03 14.08 ЮЗ 10 н/о н/о -23.2 -27.2 70 -38 -38 опасность
обморожения
987.0 981.7
06 14.08 Ю 7 н/о н/о -24.0 -29.6 60 -37 -37 опасность
обморожения
988.0 982.7
09 14.08 ЮЗ 7 50 км 9/0
[Cs]
-24.6 -30.0 61 -37 -37 опасность
обморожения
988.2 982.8
12 14.08 ЮЗ 8 50 км 8/0
[Cs]
-25.3 -29.3 69 -39 -39 опасность
обморожения
987.6 982.2 -27.1 -21.9
15 14.08 ЮЗ 10 20 км позёмок {метель} 9/0
[Cc]
-23.3 -27.1 71 -38 -38 опасность
обморожения
987.0 981.6
18 14.08 ЮЗ 14 1000 м сильный позёмок {метель} 9/0
[Ac As Cs]
-19.2 -21.7 81 -34 -34 опасность
обморожения
987.0 981.6
21 14.08 З 10 10 км сильный позёмок {метель} 9/0
[Cs]
-19.8 -22.3 80 -33 -33 опасность
обморожения
986.5 981.1
00 15.08 З 10 200 м слабый снег {метель} туман 10/10 100 м
[Frnb]
-13.8 -15.7 86 -26 -26 981.8 976.4 -25.6 -13.9
03 15.08 ЮЗ 12 н/о н/о -16.5 -18.5 84 -30 -30 979.8 974.4
06 15.08 ЮЗ 15 н/о н/о -21.0 -23.5 80 -37 -37 опасность
обморожения
979.3 973.9
09 15.08 ЮЗ 9 200 м позёмок {метель} 5/5 100 м
[St]
-26.2 -29.2 76 -41 -41 опасность
обморожения
982.8 977.4
12 15.08 В 5 20 км {метель} 1/0
[Ci fib]
-26.2 -30.0 70 -37 -37 опасность
обморожения
988.4 983.0 -28.2 -13.6
15 15.08 В 5 50 км 1/0
[Cs]
-27.5 -30.4 76 -39 -39 опасность
обморожения
992.1 986.7
18 15.08 ЮВ 3 50 км ясно -34.1 -37.0 75 -45 -45 опасность
обморожения
995.3 989.9
21 15.08 ЮВ 3 50 км ясно -35.7 -38.0 79 -47 -47 опасность
обморожения
996.8 991.4
00 16.08 Ю 3 50 км ясно -38.0 -41.5 69 -48 -48 опасность
обморожения
996.9 991.6 -38.3 -25.0
03 16.08 В 7 н/о н/о -30.2 -34.2 68 -45 -45 опасность
обморожения
996.7 991.3
06 16.08 В 7 н/о н/о -30.2 -34.9 63 -45 -45 опасность
обморожения
996.1 990.7
09 16.08 В 8 50 км 4/1 600 м
[Sc Cs]
-30.3 -35.2 62 -46 -46 опасность
обморожения
995.2 989.8
12 16.08 В 7 50 км 9/9 600 м
[Sc]
-28.5 -33.5 62 -43 -43 опасность
обморожения
994.8 989.4 -38.3 -27.8
15 16.08 В 8 50 км {метель} 9/9 300 м
[Sc]
-24.9 -29.4 66 -39 -39 опасность
обморожения
993.3 987.9

 

Местоположение метеостанции Neumayer (Антарктида): широта -70.66 долгота -8.25 высота над уровнем моря 50 м.

В архиве по умолчанию представлена погода в Neumayer за последнюю неделю. Архивные данные за месяц целиком и за предыдущие месяцы, начиная с января 2011 года, Вы можете получить, выбрав интересующий диапазон дат из раскрывающегося списка и нажав кнопку "Ввод!".

Внимание! Время в таблицах - всемирное. Для получения местного времени необходимо прибавить поправку, которая в Neumayer равна 0 ч.

Смотрите также архив погоды в соседних городах и на ближайших метеорологических станциях:

Погода в S.a.n.a.e. aws (Антарктида) (227 км)
Погода в Nordenskiold Base (Антарктида) (320 км)
Погода в Troll (Антарктида) (406 км)
Погода в Kohnen Ep9 (Антарктида) (552 км)
Погода в Maitri (Антарктида) (732 км)
Погода в Novolazarevskaja (Антарктида) (734 км)
Погода в Halley (Антарктида) (797 км)
Погода в Base Belgrano Ii (Антарктида) (1110 км)
Погода в Relay Station (Антарктида) (1713 км)
Погода в Butler Island (Антарктида) (1789 км)

Пояснения к столбцам:

Ветер - указаны скорость ветра в м/с - средняя за 10 мин, порывы в срок и между сроками (в фигурных скобках) и направление, откуда дует ветер: С - северный, СВ - северо-восточный, В - восточный, ЮВ - юго-восточный, Ю - южный, ЮЗ - юго-западный, З - западный, СЗ - северо-западный.
Видимость - горизонтальная дальность видимости в метрах или километрах. При видимости от 1 до 10 км при отсутствии осадков обычно наблюдается дымка, при ухудшении видимости до 1 км и менее - туман. В сухую погоду видимость может ухудшаться дымом, пылью или мглою.
Явления - указаны атмосферные явления, наблюдавшиеся в срок или в последний час перед сроком; фигурными скобками обозначены явления, наблюдавшиеся между сроками (за 1-3 часа до срока); квадратными скобками обозначены град или гололедные отложения с указанием их диаметра в мм.
Облачность - указаны через наклонную черту общая и нижняя облачность в баллах и высота нижней границы облаков в метрах; квадратными скобками обозначены формы облаков: Ci - перистые, Cs - перисто-слоистые, Cc - перисто-кучевые, Ac - высококучевые, As - высокослоистые, Sc - слоисто-кучевые, Ns - слоисто-дождевые, Cu - кучевые, Cb - кучево-дождевые. Подробнее классификацию облаков см. в Атласе облаков (PDF).
T - Температура воздуха - температура, измеренная на высоте 2 м над землей.
Td - Температура точки росы - температура, при понижении до которой содержащийся в воздухе водяной пар достигнет насыщения.
f - Относительная влажность воздуха - влажноcть воздуха, измеренная на высоте 2 м над землей.
Te - Эффективная температура - температура, которую ощущает одетый по сезону человек в тени. Характеристика душности погоды. При расчете учитывается влияние влажности воздуха и скорости ветра на теплоощущения человека.
Tes - Эффективная температура на солнце - температура, которую ощущает человек, с поправкой на солнечный нагрев. Характеристика знойности погоды. Зависит от высоты солнца над горизонтом, облачности и скорости ветра. Ночью, в пасмурную погоду, а также при ветре 12 м/с и более поправка равна нулю.
P - Атмосферное давление - приведенное к уровню моря атмосферное давление.
Po - Атмосферное давление - измеренное на уровне метеостанции атмосферное давление.
Tmin - Минимальная температура - минимум температуры воздуха на высоте 2 м над землей.
Tmax - Максимальная температура - максимум температуры воздуха на высоте 2 м над землей.
R - Количество осадков - Количество выпавших осадков за период времени, мм. При наведении курсора мыши на число - период времени, за который выпало указанное количество осадков.
R24 - Количество осадков - Количество выпавших осадков за 24 часа, мм.
S - Снежный покров - Высота снежного покрова, см. При наведении курсора мыши на число - состояние снежного покрова и степень покрытия местности в баллах.